STARLINK-36408, 67473

Orbit data source: Space-Track

STARLINK-36408, 67473 is a payload satellite owned by SpaceX/Seattle (US) in LEO that was launched on Wed, 14 Jan 2026 UTC via an FALCON 9 launch vehicle from the Air Force Eastern Test Range (AFETR). Payload-class satellites include a variety of spacecraft equipped with specific instruments for various scientific and technological missions. These include communications satellites like Starlink; space stations such as the ISS; scientific satellites like the Hubble; Earth observation satellites from companies like Planet Labs, Umbra, and HawkEye 360; GPS; miniature CubeSats for education and research; and military/defense satellites.

Loading next visibility...
Identifier
67473, 2026-008AE
Orbit
LEO
Country
Flag of USUS
Related business
Manufacturer
SpaceX/Seattle
Mission
Operational Commercial Communications
Bus & Motor
STARLINK V2MO, Unknown motor
Mass
575 kg wet, ~530 kg dry
Launch date (UTC)
2026-01-14 (5 months ago)
Launch vehicle
FALCON 9
Launch site
Air Force Eastern Test Range (AFETR)
Object type
Payload
Rocket body
Debris
Shape & HBR
Box + 2 Pan, 17.7 m
Radar Cross Section
36.964 m², Large (>1 m²)

Expand to show TLE details & history
Last TLE update: 1 day ago

TLE from 1 day ago
0 STARLINK-36408
1 67473U 26008AE  26170.84071618  .00013158  00000-0  48668-3 0  9997
2 67473  43.0024 348.4211 0001796 271.3744  88.6902 15.27589918 25191
Epoch: 2026-06-19T20:10Z
TLE epoch observation values (Epoch: 2026-06-19T20:10:37.877Z)
Latitude
-0.00003°
Longitude
137.69933°
Altitude
482.767 km
Speed
7.626 km/s
True Right ascension
23h 13m 41s
True Declination
0° 00' 00"
Sunlit
Object was in daylight at epoch
Visualization orbit readout
Latitude
Unknown
Longitude
Unknown
Altitude
Unknown
Speed
Unknown
Apparent Right ascension
Unknown
Apparent Declination
Unknown
Sunlit
N/A
Visualization observer readout
Local Sidereal Time
08:41:51
Azimuth
Unknown
Elevation
Unknown
Doppler factor
Unknown
Orbital elements
Apogee altitude
486.197 km
Perigee altitude
483.732 km
Semi-major axis
6,863.101 km
Eccentricity
0.00018
Inclination
43.0024°
RAAN
348.4211°
Arg. of periapsis
271.3744°
True anomaly
88.71078°
Mean anomaly
88.6902°
Eccentric anomaly
88.70049°
Mean motion
3.81736 °/min
Orbital period
94.31 mins
BSTAR
0.00048668
Loading maneuver chart data...
Computing Atmospheric mass density...
Loading historical data...
Loading historical data...
Loading historical data...
Loading historical data...
Loading historical data...
Loading historical data...
Loading historical data...

Documentation

Showing up to 5 results
|